Helicity
-6 3 3 31 -21 -20 44 40 81 12 -35 81 140 129 61 -39 -56 -53 79 113 163 180 121 176 226 241 213 191 178 171 165 148 139 152 139 132 106 91 78 69 60 52 58 53 53 51 47 41 33
-13 22 15 35 -24 -53 52 220 58 68 86 132 78 50 -40 -14 50 102 128 137 169 142 146 165 194 214 197 200 207 197 199 179 158 148 146 130 104 86 74 60 44 51 54 62 59 58 50 39 28
18 17 55 -11 -28 17 37 -5 74 51 83 72 53 41 46 142 104 102 89 195 172 137 163 168 204 194 182 185 193 202 205 200 180 149 130 108 104 96 71 53 35 83 85 73 60 55 46 41 38
44 53 56 -11 28 39 199 131 61 101 83 78 44 11 114 111 129 121 118 205 156 115 144 147 187 193 172 157 160 180 194 196 185 161 132 122 114 95 80 70 120 122 92 82 62 50 43 46 50
35 47 -3 -63 34 98 119 55 158 194 176 67 64 7 111 209 266 214 183 171 186 139 123 131 139 151 171 168 154 164 165 165 164 156 156 151 126 119 119 140 147 125 114 83 68 61 55 62 70
30 47 10 23 92 44 33 63 124 141 111 23 81 78 115 210 178 161 240 190 134 212 205 144 142 160 171 164 180 178 161 147 145 173 181 168 171 194 184 178 199 144 131 120 97 73 66 67 90
29 34 -19 64 56 84 14 102 172 170 156 93 43 92 153 219 163 199 192 143 211 228 220 178 133 138 170 186 188 198 193 182 192 206 223 243 236 218 200 209 198 143 88 143 119 91 71 70 179
82 75 14 -22 32 142 -5 43 73 91 87 119 88 109 113 125 189 165 136 212 252 233 239 202 168 147 162 163 192 190 207 228 242 263 295 276 233 212 208 228 167 114 112 130 125 106 75 100 241
26 75 5 -31 -21 101 -35 -1 18 29 111 64 80 99 75 171 204 259 265 216 247 235 232 225 220 182 180 188 192 204 209 240 290 323 314 294 260 230 218 196 141 142 119 97 93 101 79 148 296
28 34 34 34 49 80 -13 30 29 20 50 77 75 91 293 330 384 435 384 296 282 271 251 238 222 218 217 207 231 248 252 260 285 307 328 327 274 247 250 234 194 147 152 112 113 105 111 204 295
69 100 98 128 120 60 60 67 19 88 109 121 81 80 159 332 393 365 312 289 230 297 283 258 229 220 248 257 284 291 318 322 314 313 328 306 338 359 312 277 225 191 164 145 120 139 159 256 314
-32 -54 -22 18 5 151 124 72 3 50 85 61 56 16 24 155 186 211 250 257 320 256 284 268 198 227 241 302 306 328 345 350 372 340 316 351 369 353 334 293 218 193 170 137 87 160 191 317 339
2 -22 -32 -58 -17 36 83 30 95 79 91 76 66 61 27 48 95 132 197 238 287 328 276 265 257 207 286 326 299 388 366 412 408 375 321 371 363 344 337 275 219 159 155 142 173 203 240 353 364
-40 -52 -61 -95 -44 -30 48 15 82 47 80 86 121 130 141 148 133 177 124 186 287 402 403 302 254 281 333 363 361 382 403 412 391 357 355 360 340 354 283 268 210 170 153 186 236 260 334 454 471
10 -9 -11 -27 -14 -25 49 106 104 144 155 140 172 123 192 203 151 197 157 174 128 304 412 407 305 332 377 434 437 423 449 430 371 367 345 387 329 323 329 331 276 231 220 240 290 333 422 511 525
3 68 86 30 110 123 139 183 118 121 155 132 137 175 152 127 134 147 137 143 137 192 348 343 424 429 384 428 446 500 461 384 384 382 375 418 412 395 480 361 371 326 266 248 287 362 483 542 560
102 96 89 66 89 100 36 63 48 -10 39 71 113 125 159 141 136 131 98 59 123 291 433 476 469 469 397 410 512 563 447 391 373 382 367 408 330 312 304 326 415 350 299 251 292 351 427 543 564
88 106 103 64 26 44 72 29 3 -5 15 31 67 90 116 96 94 121 174 187 142 238 421 456 438 505 479 472 451 495 456 368 363 343 383 389 434 493 471 446 407 349 299 256 335 427 474 509 591
107 77 69 58 45 67 82 82 76 94 113 108 151 113 54 52 92 175 231 256 209 216 418 369 424 449 511 550 415 441 454 385 351 336 362 397 435 415 411 345 326 329 271 262 411 537 507 625 621
69 95 99 103 94 114 90 78 104 108 92 106 94 114 69 117 333 446 529 465 199 285 430 436 412 381 311 334 360 427 449 446 383 409 378 427 443 469 450 374 327 290 342 374 362 532 578 610 555
156 143 124 119 123 147 139 116 121 137 140 84 79 108 70 182 424 540 504 583 606 422 284 178 167 198 217 264 309 367 383 386 404 389 393 338 422 442 440 413 443 397 244 334 399 565 616 634 526
159 115 160 161 130 124 158 143 123 79 92 114 135 181 383 381 382 388 482 534 473 460 273 213 168 144 223 245 237 254 303 263 233 276 305 384 352 360 416 429 378 295 325 327 434 551 582 621 555
98 163 265 244 203 134 172 243 229 102 171 292 404 553 631 602 383 215 234 235 197 180 188 190 120 204 203 220 206 172 185 197 173 220 214 310 332 308 366 413 379 358 403 396 479 571 585 536 482
137 246 243 218 246 244 163 254 268 176 192 316 355 416 445 496 516 457 418 368 313 156 67 81 117 49 126 240 241 197 118 137 174 191 221 278 324 366 363 426 440 396 377 467 456 567 567 507 417
302 352 294 232 263 239 187 252 197 372 491 465 385 367 231 187 222 282 255 209 140 98 79 38 28 42 60 123 225 188 164 152 106 161 196 258 312 348 348 418 524 453 425 452 511 537 544 490 427
315 372 371 290 366 373 357 514 435 316 344 350 359 323 229 212 37 -38 90 138 37 2 3 18 -17 -24 -36 45 138 180 179 167 145 159 158 235 329 373 395 434 458 513 480 509 475 488 521 459 392
347 333 311 451 443 464 462 385 240 337 376 352 351 271 141 16 -63 -65 -58 -38 -25 -1 -19 -5 -13 -10 48 89 174 211 195 181 154 183 182 172 248 365 418 419 438 498 503 573 557 488 466 464 384
232 231 386 557 565 547 540 317 418 518 386 175 119 -7 -157 -242 -179 -93 38 68 79 110 147 113 138 160 128 143 137 201 237 230 193 239 207 231 271 320 423 460 447 474 498 458 536 523 439 406 370
238 307 348 406 547 629 544 527 578 391 388 287 143 -73 -270 -272 -119 40 125 9 -7 -24 -38 -0 -18 24 60 95 180 241 299 248 226 224 188 153 228 326 452 460 472 452 482 554 576 584 436 393 348
246 298 332 466 508 506 554 577 259 274 207 20 -138 -75 37 84 49 10 37 7 17 -21 -12 -50 3 15 83 126 136 168 239 230 244 251 199 207 185 190 324 487 520 498 524 556 639 741 510 628 475
Wind_Speed
22 22 24 27 20 23 28 31 33 31 29 34 36 39 34 17 25 12 16 13 19 19 18 18 17 17 18 20 20 20 18 18 19 21 21 20 20 20 19 22 23 24 24 25 26 27 28 30 32
22 28 18 31 26 22 20 28 34 25 28 37 41 38 34 16 21 23 19 16 17 20 19 17 17 16 14 14 17 18 19 19 18 19 18 16 15 15 16 19 21 21 21 22 22 24 26 28 29
29 20 27 24 21 26 21 17 24 32 36 41 41 24 25 20 23 20 18 19 20 20 17 16 17 16 16 18 20 20 19 18 18 18 18 15 13 12 12 15 17 18 17 18 20 22 24 26 27
26 31 39 31 32 33 25 42 29 30 38 32 30 44 30 18 20 19 22 20 20 21 17 18 18 16 16 17 19 19 21 22 21 19 16 14 12 10 11 11 12 14 14 13 16 20 22 24 26
27 34 14 10 35 35 35 9 27 34 42 36 24 35 28 26 21 21 17 14 15 15 18 18 18 18 16 15 15 14 17 20 21 20 19 15 12 8 5 7 10 13 15 12 14 17 20 22 24
29 31 31 14 37 55 50 11 29 30 31 36 30 37 32 14 16 16 17 13 12 10 13 15 18 17 16 14 16 16 16 16 14 14 14 13 11 7 5 6 7 7 8 11 11 14 17 19 22
30 44 57 60 64 61 53 35 36 38 30 36 40 36 23 16 15 15 13 10 9 9 8 7 8 12 14 15 15 16 18 17 14 12 10 8 7 5 3 4 7 7 6 9 10 12 14 16 20
34 45 65 66 63 58 41 40 39 37 40 48 38 34 23 12 12 13 11 11 7 5 4 3 1 2 7 11 13 14 16 18 17 13 11 8 7 6 1 6 5 4 6 8 8 10 12 13 18
43 47 68 68 69 66 63 63 47 44 32 38 41 45 24 6 9 13 9 10 10 5 3 2 4 7 7 7 10 12 14 15 17 19 17 12 8 6 6 8 6 2 5 4 8 9 11 12 16
42 48 59 62 74 81 81 72 71 57 51 39 35 39 17 11 13 15 16 15 14 13 12 9 9 11 13 13 13 13 13 13 14 14 14 13 11 9 6 4 6 4 2 2 7 6 8 8 12
27 30 51 52 32 77 86 86 71 74 65 60 55 45 23 20 17 17 19 19 18 17 15 17 17 16 19 19 18 19 18 17 16 17 17 15 12 10 11 9 8 5 4 7 1 8 8 6 10
75 78 77 71 84 48 47 73 84 79 68 62 64 57 50 25 21 22 24 25 24 23 23 22 22 23 23 24 24 24 25 23 21 22 20 18 17 14 13 12 11 8 5 4 3 5 4 5 8
55 73 80 78 77 72 70 78 74 73 65 60 57 51 51 41 30 30 30 31 30 30 26 22 22 28 30 29 29 29 29 28 26 25 24 22 21 18 16 14 12 10 8 8 6 6 1 6 5
70 80 82 83 83 84 82 90 75 34 35 35 35 35 36 35 35 33 34 35 35 36 32 29 24 25 29 34 35 34 33 32 30 29 28 26 23 20 18 17 15 15 13 12 9 6 3 7 4
68 78 83 78 85 64 42 61 32 30 32 42 43 44 45 50 36 40 33 26 29 39 37 31 26 26 28 34 39 40 36 35 35 33 31 29 26 25 23 18 17 18 15 13 10 8 7 7 5
80 71 68 75 38 24 51 54 46 30 35 42 39 41 43 46 41 42 43 45 35 30 33 31 26 24 30 35 39 44 42 41 42 38 33 30 27 26 25 21 19 18 17 16 13 10 7 5 4
44 37 31 43 41 60 61 68 61 59 52 58 53 44 38 37 35 33 34 34 37 32 31 28 25 25 31 32 34 37 45 45 44 40 34 32 29 26 25 24 22 20 20 19 16 13 12 8 5
42 45 60 75 79 88 88 90 75 66 70 71 61 55 46 41 40 37 30 27 32 25 27 25 24 22 27 33 38 40 42 46 43 41 38 34 31 32 29 28 25 22 22 20 18 14 11 11 7
45 73 82 77 81 88 84 79 75 67 74 77 68 61 56 57 54 41 43 42 34 23 24 25 24 21 27 31 40 46 48 48 46 47 41 39 38 33 32 32 29 28 27 25 20 17 15 13 10
59 76 82 79 75 77 93 99 84 77 70 63 63 63 54 52 42 41 46 48 32 25 22 21 22 21 27 33 42 50 50 56 53 48 50 47 42 38 35 33 31 32 30 26 25 22 17 16 15
64 77 85 91 87 76 90 104 72 63 73 73 66 54 54 31 29 31 39 45 46 29 20 17 18 19 23 32 37 45 47 51 55 55 53 55 44 41 41 38 38 35 35 33 32 28 24 21 20
68 67 71 83 93 92 71 117 117 69 86 81 66 46 37 33 33 35 40 42 45 40 33 28 26 25 29 30 33 39 51 59 55 56 55 55 54 50 47 45 42 41 40 38 38 33 29 26 27
83 68 70 74 86 104 76 74 97 90 70 55 53 50 50 50 46 43 43 46 42 40 38 38 33 34 32 28 34 41 47 51 55 59 61 59 58 59 53 48 49 46 45 43 42 39 36 32 32
68 67 72 75 75 97 93 69 73 75 48 46 47 48 52 54 56 57 59 59 56 53 49 47 45 40 31 33 34 38 50 54 57 60 61 62 61 59 59 56 55 51 52 50 48 44 42 37 37
62 67 86 90 72 83 73 86 59 48 49 51 53 54 56 59 65 71 71 71 70 70 70 67 60 56 45 38 40 42 48 60 63 62 65 65 65 64 63 59 59 59 58 55 52 50 48 45 43
64 60 70 93 92 95 89 86 67 40 49 52 52 59 67 78 81 76 78 81 84 79 81 84 85 77 58 48 48 50 56 58 62 69 70 73 73 67 61 60 61 60 57 57 57 55 51 50 47
63 67 59 79 86 95 91 87 78 54 63 64 70 76 81 82 79 80 80 80 94 99 105 102 95 89 85 77 69 65 63 64 70 71 71 79 78 77 71 65 63 63 62 59 58 59 56 52 50
59 58 74 71 93 100 90 96 87 78 78 79 81 85 85 79 83 90 87 84 83 81 85 91 99 106 107 99 88 81 77 74 71 72 75 77 79 77 78 77 70 68 66 64 61 61 58 56 56
68 69 67 71 74 95 101 88 60 72 86 95 105 107 100 98 102 94 96 86 86 85 91 92 91 92 86 88 80 74 72 73 76 79 80 79 81 78 77 78 75 73 73 69 61 62 61 60 60
73 76 73 82 86 76 77 90 70 88 98 106 106 107 107 104 103 98 94 87 86 86 89 78 76 73 66 59 60 62 62 61 63 66 70 77 80 81 79 75 74 73 71 72 68 65 60 65 67
Wind_Direction
78 80 358 312 21 106 164 172 184 196 223 353 336 329 343 159 184 137 24 34 73 86 80 91 102 105 111 119 124 126 123 120 116 110 103 96 87 75 64 59 57 55 50 43 35 30 26 23 24
338 298 326 205 114 112 138 202 192 359 318 323 332 334 221 114 47 21 21 52 71 81 85 91 105 109 113 122 128 133 133 131 127 121 115 107 97 83 72 65 61 53 43 33 28 24 20 17 15
295 349 293 93 95 143 77 38 357 312 325 323 342 22 9 25 35 60 42 80 86 87 80 100 110 112 119 131 139 141 145 146 143 139 134 128 117 101 85 78 75 49 42 33 19 12 13 11 12
298 284 247 159 173 194 191 231 342 339 334 350 359 301 344 35 45 45 72 71 90 96 85 109 111 111 117 130 140 145 149 152 155 154 151 144 134 117 102 86 65 60 50 26 16 8 7 11 11
307 289 269 100 186 216 237 301 339 327 323 338 352 337 341 349 46 65 69 60 66 80 93 108 116 119 117 125 133 145 152 155 160 160 157 158 152 135 90 43 39 56 69 35 1 7 8 12 14
300 303 307 158 217 262 295 353 333 345 348 336 338 333 337 49 39 63 81 83 90 67 95 106 129 131 127 129 137 143 149 155 166 169 168 166 160 149 116 65 38 36 22 44 19 9 16 15 16
300 288 233 241 266 280 322 348 334 324 336 332 340 332 344 3 41 53 44 65 75 79 76 72 112 136 136 140 146 151 155 162 172 176 178 189 182 169 140 14 2 7 31 44 30 18 26 27 19
298 291 268 270 273 274 342 338 335 333 324 318 334 329 335 347 21 18 21 16 28 56 35 34 60 150 156 155 158 164 162 165 167 175 185 189 193 189 203 339 359 23 31 28 47 44 32 38 26
291 292 278 281 273 276 305 322 331 331 333 324 319 323 331 342 354 342 346 336 334 322 302 280 214 206 213 219 192 179 181 176 171 169 171 178 196 222 280 311 323 47 71 52 58 63 65 49 35
292 290 288 290 280 283 293 306 313 323 326 329 324 323 320 287 280 284 289 288 284 279 278 258 241 231 225 229 229 223 207 203 203 202 200 199 205 245 273 295 289 315 19 23 77 72 72 41 42
296 225 296 299 296 291 287 289 307 308 311 314 318 328 327 300 287 284 284 278 263 273 270 260 250 238 226 235 231 241 237 225 224 207 214 218 227 241 260 282 278 285 298 308 337 107 98 49 44
262 259 252 248 271 302 306 301 295 299 308 312 310 311 312 296 284 281 281 280 277 263 269 263 254 255 248 250 236 241 239 234 227 222 216 219 233 235 239 259 255 249 247 240 232 114 95 16 71
257 262 276 284 289 297 304 298 303 303 312 312 310 306 301 295 282 280 281 278 274 270 267 253 252 257 259 253 252 248 242 240 236 227 226 225 229 236 237 242 234 230 227 219 220 282 130 8 64
291 279 279 281 288 292 299 292 303 293 306 302 302 296 294 281 277 280 274 276 273 265 262 257 244 247 247 253 253 248 246 245 239 235 229 231 237 240 222 228 229 222 221 205 233 239 249 329 31
294 289 282 267 286 259 304 307 283 285 313 320 329 335 330 326 309 302 304 288 280 268 261 253 256 256 251 250 250 254 246 244 242 237 233 239 242 237 232 216 227 225 217 212 226 246 273 307 346
283 299 305 272 324 307 317 305 314 308 315 317 322 324 321 317 310 304 299 296 297 274 255 244 255 252 260 261 255 255 251 250 246 245 232 238 240 246 229 227 221 215 217 219 220 228 246 263 311
315 311 302 265 303 319 317 316 322 327 328 326 327 322 316 312 310 302 299 297 297 272 256 242 235 245 263 266 262 261 249 249 251 247 238 238 236 224 223 236 230 221 219 222 221 222 222 231 266
321 318 315 313 314 309 308 306 313 317 317 317 318 319 315 311 304 298 292 296 309 297 256 231 230 251 266 270 267 266 253 252 251 247 244 233 236 237 236 237 229 222 221 214 230 227 228 230 230
314 311 311 315 315 312 312 312 316 319 319 319 320 318 312 311 314 312 309 309 304 289 256 239 241 244 262 271 270 268 254 250 252 250 242 240 240 232 233 240 234 229 217 211 210 222 211 243 225
312 309 311 315 318 316 311 307 313 317 320 321 322 318 316 312 325 331 333 331 310 288 270 251 249 255 265 278 279 274 264 258 258 257 252 243 240 235 237 233 229 228 221 217 217 213 228 240 211
313 310 313 313 317 317 313 306 321 326 323 324 322 320 326 334 342 345 347 351 347 325 302 278 270 267 278 282 285 281 270 270 261 258 257 253 244 238 239 238 236 231 227 225 212 211 211 219 235
312 316 315 315 316 314 323 310 313 329 324 329 335 348 358 0 358 356 347 350 352 355 338 313 300 286 285 272 279 278 272 268 268 264 259 255 254 247 245 243 238 233 231 228 215 216 217 213 220
308 314 314 314 312 310 317 313 314 322 326 343 357 3 2 2 359 354 347 342 343 343 338 328 319 301 292 278 275 275 277 277 274 272 265 259 254 252 247 245 240 236 238 237 226 221 223 222 223
312 312 312 311 311 306 314 314 328 327 334 344 350 354 350 345 340 335 334 332 332 333 328 324 324 314 300 284 278 273 273 276 275 274 268 263 259 255 251 249 245 242 241 240 230 228 228 226 229
315 314 309 309 307 306 321 317 322 337 344 342 337 337 339 338 332 325 321 318 316 317 311 310 310 313 308 291 285 279 274 273 275 275 271 266 261 257 252 246 249 247 246 246 236 234 233 230 230
314 313 304 303 306 308 313 309 317 341 341 341 340 335 330 325 321 319 314 311 305 311 306 302 297 299 302 295 287 282 280 278 278 274 271 268 263 259 254 248 246 244 241 242 240 237 238 233 231
316 307 312 304 305 304 305 305 305 322 322 329 329 328 326 323 322 320 317 314 305 301 298 299 297 294 292 289 286 280 277 275 277 277 275 269 264 261 256 251 248 247 243 240 238 238 236 235 233
310 314 307 308 304 302 304 303 302 316 322 325 324 324 324 325 323 321 318 314 313 311 309 308 304 298 292 288 284 280 274 272 276 276 273 271 267 260 256 250 249 249 246 242 239 239 235 236 238
311 307 308 308 302 303 302 300 315 321 322 319 317 316 318 319 318 318 317 317 317 317 314 311 309 306 300 295 290 282 276 273 277 275 273 271 267 260 254 250 248 248 247 246 241 245 238 237 239
306 307 307 304 304 304 307 299 313 317 318 318 318 317 317 317 317 316 318 318 320 321 319 322 318 315 316 313 304 293 286 280 277 276 272 272 267 262 253 249 247 249 245 246 244 244 239 239 239